Regional Weather Roundup
Issued by NWS

Home | Current Version | Previous Version | Text Only | Print | Product List | Glossary On
Versions: 1 2 3 4 5 6 7 8 9 10 11 12 13 14 15 16 17 18 19 20 21 22 23 24 25 26 27 28 29 30 31 32 33 34 35 36 37 38 39 40 41 42 43 44 45 46 47 48 49 50
123
ASUS43 KMPX 251401
RWRMN
WEATHER ROUNDUP FOR MINNESOTA
NATIONAL WEATHER SERVICE TWIN CITIES/CHANHASSEN MN
900 AM CDT WED APR 25 2018


NOTE: "FAIR" INDICATES FEW OR NO CLOUDS BELOW 12,000 FEET WITH NO
SIGNIFICANT WEATHER AND/OR OBSTRUCTIONS TO VISIBILITY. N/A MEANS
CURRENT SKY AND/OR WEATHER CONDITIONS ARE NOT AVAILABLE.

MNZ060>063-068>070-251500-
   Twin Cities Metro

CITY           SKY/WX    TMP DP  RH WIND       PRES   REMARKS
TWIN CITIES    FAIR      42  27  55 VRB5      30.25F
ST PAUL        FAIR      42  26  53 NE6       30.27S
CRYSTAL        FAIR      42  24  49 E7        30.24F
BLAINE         SUNNY     43  27  52 NE3       30.25F
LAKEVILLE      FAIR      39  27  60 NE7       30.25R
EDEN PRAIRIE   FAIR      42  26  53 E7        30.24F
SOUTH ST PAUL  FAIR      42  26  53 NE7       30.25S
LAKE ELMO      FAIR      41  28  60 E5        30.25F
$$
MNZ001>005-007-008-013>017-022>024-027-028-251500-
   Northwest Minnesota

CITY           SKY/WX    TMP DP  RH WIND       PRES   REMARKS
BEMIDJI        FAIR      39  24  54 S8        30.21F
HALLOCK        FAIR      46  32  57 S15       30.10F
ROSEAU         FAIR      45  30  57 S17       30.11F
WARROAD        FAIR      45  28  53 SW17      30.12F
THIEF RVR FALL FAIR      42  28  57 S16       30.17F
CROOKSTON      FAIR      43  34  70 S16       30.18F
FOSSTON        FAIR      36  27  69 S16       30.21F
DETROIT LAKES  FAIR      37  28  70 S8        30.24F
MOORHEAD       FAIR      39  30  70 S9        30.24F
PARK RAPIDS    FAIR      40  25  55 S9        30.23F
MAHNOMEN       FAIR      36  29  74 S14       30.23F
$$
MNZ006-009>011-018-025>026-251500-
   North Central Minnesota

CITY           SKY/WX    TMP DP  RH WIND       PRES   REMARKS
BAUDETTE       FAIR      42  26  53 S10       30.16F
FLAG ISLAND    FAIR      34  27  75 S15       30.09F WCI  24
INTL FALLS     FAIR      40  25  55 S9        30.18F
WASKISH        PTSUNNY   43  25  49 S6        30.19F
BIG FORK       FAIR      39  27  60 S7        30.20F
LONGVILLE      FAIR      39  25  56 S3        30.23F
GRAND RAPIDS   FAIR      39  22  50 S7        30.24F
CRANE LAKE     FAIR      36  23  60 S6        30.23F
ORR            FAIR      37  21  52 S5        30.18F
COOK           FAIR      37  23  56 SW7       30.22F
WALKER         FAIR      39  23  53 SW6       30.22F
$$
MNZ012-019>021-037-251500-
   Northeast Minnesota

CITY           SKY/WX    TMP DP  RH WIND       PRES   REMARKS
DULUTH         FAIR      38  25  59 S3        30.22F
ELY            FAIR      36  21  55 SW3       30.21F
HIBBING        FAIR      36  22  56 S5        30.22F
EVELETH        FAIR      37  23  56 S3        30.23F
DULUTH HARBOR  FAIR      37  25  60 CALM      30.27F
TWO HARBORS    FAIR      46  30  53 CALM      30.22F
SILVER BAY     FAIR      39  25  56 CALM      30.21F
GRAND MARAIS     N/A     35  28  75 SW5       30.24F WCI  31
G MARAIS ARPRT FAIR      34  16  47 CALM      30.19F
$$
MNZ029>031-032-039>041-046>048-054>057-064-251500-
   West Central Minnesota

CITY           SKY/WX    TMP DP  RH WIND       PRES   REMARKS
FERGUS FALLS   FAIR      39  28  65 S7        30.25F
WHEATON        SUNNY     41  28  60 S6        30.29F
MORRIS         SUNNY     39  28  65 W3        30.27S
ALEXANDRIA     FAIR      41  26  55 SW7       30.26F
ELBOW LAKE     FAIR      39  30  72 W6        30.28S
WADENA         FAIR      39  27  60 SW6       30.25S
GLENWOOD       FAIR      39  25  56 S5        30.27S
APPLETON       SUNNY     39  27  60 CALM      30.28S
BENSON         SUNNY     41  30  65 CALM      30.29S
ORTONVILLE     SUNNY     43  27  52 CALM      30.28S
WILLMAR        FAIR      37  27  65 CALM      30.29S
$$
MNZ033>034-036-042>043-049>051-058-059-251500-
   Central Minnesota

CITY           SKY/WX    TMP DP  RH WIND       PRES   REMARKS
ST CLOUD       FAIR      40  26  57 E6        30.25F
SAUK CENTRE    FAIR      38  26  60 CALM      30.27S
PAYNESVILLE    FAIR      40  28  62 CALM      30.27S
AITKIN         FAIR      37  25  60 CALM      30.23F
PINE RIVER     FAIR      37  25  60 S6        30.27F
BRAINERD       FAIR      39  24  55 VRB3      30.25F
STAPLES        FAIR      39  25  56 S7        30.25S
LONG PRAIRIE   FAIR      37  27  65 CALM      30.26F
LITTLE FALLS   FAIR      37  18  44 CALM      30.26S
LITCHFIELD     FAIR      41  28  60 NE5       30.26F
BUFFALO        FAIR      39  26  59 NE3       30.27S
MAPLE LAKE     FAIR      40  28  62 CALM      30.27S
HUTCHINSON     FAIR      40  29  63 NE7       30.27S
$$
MNZ037-044-045-052-053-251500-
   East Central Minnesota

CITY           SKY/WX    TMP DP  RH WIND       PRES   REMARKS
PRINCETON      FAIR      43  25  49 E5        30.26S
MORA           FAIR      37  23  56 SE3       30.26F
CAMBRIDGE      FAIR      43  27  52 NE3       30.26S
RUSH CITY      FAIR      39  25  56 NE5       30.26S
MOOSE LAKE     FAIR      37  23  56 CALM      30.23F
HINCKLEY       FAIR      37  27  65 E3        30.25F
CLOQUET        FAIR      37  21  52 CALM      30.23F
MCGREGOR       FAIR      37  27  65 CALM      30.24F
$$
MNZ071>073-080-081-089-090-097-098-251500-
   Southwest Minnesota

CITY           SKY/WX    TMP DP  RH WIND       PRES   REMARKS
MONTEVIDEO     SUNNY     45  36  70 CALM      30.28F
GRANITE FALLS  SUNNY     39  32  76 W5        30.30S
CANBY          SUNNY     40  32  71 CALM      30.29F
MARSHALL       SUNNY     38  31  76 NW5       30.29S
REDWOOD FALLS  SUNNY     40  29  64 NE3       30.27F
OLIVIA         SUNNY     39  30  70 NE3       30.26F
PIPESTONE      SUNNY    N/A N/A N/A E5        30.26S
WINDOM         SUNNY     39  21  48 NW6       30.27S
WORTHINGTON    SUNNY     38  30  73 N9        30.27S
JACKSON        SUNNY     37  32  81 N5        30.26F
TRACY          SUNNY     38  32  78 NW5       30.28S
SLAYTON        SUNNY     36  31  81 NW6       30.28S
$$
MNZ065>067-074>077-082>085-091>093-251500-
   South Central Minnesota

CITY           SKY/WX    TMP DP  RH WIND       PRES   REMARKS
MANKATO        FAIR      40  28  62 NE5       30.26S
NEW ULM        SUNNY     39  27  60 NE6       30.27R
ST JAMES       SUNNY     37  32  81 NW7       30.28S
FAIRMONT       SUNNY     38  31  76 N9        30.27R
GLENCOE        FAIR      40  30  66 NE5       30.26S
OWATONNA       FAIR      41  28  60 NE7       30.24S
WASECA         FAIR      39  30  70 N7        30.26R
ALBERT LEA     FAIR      41  28  60 NE7       30.24R
$$
MNZ078>079-086>088-094>096-251500-
   Southeast Minnesota

CITY           SKY/WX    TMP DP  RH WIND       PRES   REMARKS
ROCHESTER      FAIR      42  32  67 N8        30.22S
RED WING       FAIR      43  23  45 E6        30.24S
STANTON        FAIR      40  30  66 NE7       30.23S
DODGE CENTER   FAIR      39  28  65 NE6       30.23R
WINONA         FAIR      41  32  70 N5        30.21S
AUSTIN         FAIR      43  30  61 NE5       30.23R
PRESTON        FAIR      41  32  72 CALM      30.22R
$$
ABBREVIATIONS USED IN REMARKS
   TC - TEMPERATURES IN CELSIUS
  WCI - WIND CHILL INDEX
   HX - HEAT INDEX
  VSB - VISIBILITY
$$




USA.gov is the U.S. government's official web portal to all federal, state and local government web resources and services.